sat.trackr.live / text

‹ back to catalog

STARLINK-35286

NORAD 65803 · 2025-218N

PAYLOAD ACTIVE UNKNOWN

§ Identity

Operator
Country
US
Launch date
2025-09-26
Launch site
AFWTR
Launch vehicle
Mass (kg)
RCS (m²)

Purposes: comms

External: N2YO · Heavens-Above · Gunter

§ Orbital elements

Epoch: 2026-09-20T14:13:18.597504Z

Period
93.91 min
Inclination
97.2842°
Eccentricity
0.0002261
Mean motion
15.33462899 rev/d
Perigee alt
463.9 km
Apogee alt
467.0 km
Semi-major
6,843.6 km
B*
4.3916e-4
RAAN
120.9023°
Arg perigee
87.9117°
Mean anomaly
272.2385°
Rev number
5,434

§ Raw data

STARLINK-352861 65803U 25218N   26263.59257636  .00014138  00000+0  43916-3 0  99942 65803  97.2842 120.9023 0002261  87.9117 272.2385 15.33462899 54342

JSON: /api/v1/satellites/65803 · /tle

For live sub-satellite position, see the globe view (requires WebGL).

§ Visibility from observer

Set your observer location to see the next 7 days of passes ≥ 10°. The values pass through the URL so the page stays shareable.

No JS? Fill the form by hand. The geolocation button needs JavaScript.